STARLINK-37452, 68840

Orbit data source: Space-Track

STARLINK-37452, 68840 is a payload satellite owned by SpaceX/Seattle (US) in SSO that was launched on Sun, 26 Apr 2026 UTC via an FALCON 9 launch vehicle from the Air Force Western Test Range (AFWTR). Payload-class satellites include a variety of spacecraft equipped with specific instruments for various scientific and technological missions. These include communications satellites like Starlink; space stations such as the ISS; scientific satellites like the Hubble; Earth observation satellites from companies like Planet Labs, Umbra, and HawkEye 360; GPS; miniature CubeSats for education and research; and military/defense satellites.

Loading next visibility...
Identifier
68840, 2026-094B
Orbit
SSO
Country
Flag of USUS
Related business
Manufacturer
SpaceX/Seattle
Mission
Operational spacecraft
Bus & Motor
STARLINK V2MO, Unknown motor
Mass
575 kg wet, ~530 kg dry
Launch date (UTC)
2026-04-26 (2 months ago)
Launch vehicle
FALCON 9
Launch site
Air Force Western Test Range (AFWTR)
Object type
Payload
Rocket body
Debris
Shape & HBR
Unknown shape, 14.5 m
Radar Cross Section
Large (>1 m²)

Expand to show TLE details & history
Last TLE update: 21 hours ago

TLE from 21 hours ago
0 STARLINK-37452
1 68840U 26094B   26170.96811468  .00013899  00000-0  43187-3 0  9992
2 68840  97.2834 185.3602 0002242 100.3055 259.8440 15.33456520  8475
Epoch: 2026-06-19T23:14Z
TLE epoch observation values (Epoch: 2026-06-19T23:14:05.108Z)
Latitude
-0.00008°
Longitude
-71.35056°
Altitude
468.892 km
Speed
7.632 km/s
True Right ascension
12h 21m 26s
True Declination
0° 00' 00"
Sunlit
Object was in daylight at epoch
Visualization orbit readout
Latitude
Unknown
Longitude
Unknown
Altitude
Unknown
Speed
Unknown
Apparent Right ascension
Unknown
Apparent Declination
Unknown
Sunlit
N/A
Visualization observer readout
Local Sidereal Time
07:13:03
Azimuth
Unknown
Elevation
Unknown
Doppler factor
Unknown
Orbital elements
Apogee altitude
463.985 km
Perigee altitude
460.918 km
Semi-major axis
6,840.589 km
Eccentricity
0.00022
Inclination
97.2834°
RAAN
185.3602°
Arg. of periapsis
100.3055°
True anomaly
259.81871°
Mean anomaly
259.844°
Eccentric anomaly
259.83136°
Mean motion
3.83622 °/min
Orbital period
93.84 mins
BSTAR
0.00043187
Loading maneuver chart data...
Computing Atmospheric mass density...
Loading historical data...
Loading historical data...
Loading historical data...
Loading historical data...
Loading historical data...
Loading historical data...
Loading historical data...

Documentation

Showing up to 5 results
|